Location: Unspecified
(0.0000°N, 0.0000°E)
Time: 13:26:38
(UTC+00:00)

Courier 1B - All Passes

Search period start: 20 July 2019 00:00
Search period end: 30 July 2019 00:00
Orbit: 963 x 1209 km, 28.3° (Epoch: 19 July)

Date Brightness Start Highest point End Pass type
(mag) Time Alt. Az. Time Alt. Az. Time Alt. Az.
20 Jul - 00:53:27 10° SSW 00:59:24 25° SSE 01:05:31 10° ESE night (unlit)
20 Jul - 02:46:16 10° SW 02:54:02 77° SSE 03:01:55 10° ENE visible
20 Jul - 04:41:34 10° W 04:48:35 35° NNW 04:55:32 10° NE visible
20 Jul - 06:41:19 10° NW 06:43:52 12° NNW 06:46:24 10° N daylight
20 Jul - 12:28:35 10° NNW 12:32:59 18° NNE 12:37:16 10° ENE daylight
20 Jul - 14:20:54 10° NW 14:27:25 62° NNE 14:33:48 10° ESE daylight
20 Jul - 16:15:37 10° W 16:21:27 35° SSW 16:27:19 10° SE daylight
20 Jul - 18:15:30 10° SSW 18:16:16 10° SSW 18:17:02 10° SSW daylight
21 Jul - 00:00:25 10° SSW 00:05:15 18° SSE 00:10:13 10° ESE night (unlit)
21 Jul - 01:52:33 10° SW 02:00:02 57° SSE 02:07:43 10° ENE visible
21 Jul - 03:47:04 10° WSW 03:54:31 47° NNW 04:01:59 10° NE visible
21 Jul - 05:45:05 10° WNW 05:49:32 16° NNW 05:53:57 10° NNE daylight
21 Jul - 11:35:43 10° N 11:38:54 13° NNE 11:42:01 10° NE daylight
21 Jul - 13:27:17 10° NW 13:33:39 44° NNE 13:39:47 10° E daylight
21 Jul - 15:21:23 10° WNW 15:27:41 50° SSW 15:33:55 10° SE daylight
21 Jul - 17:18:55 10° SW 17:22:10 14° SSW 17:25:27 10° S daylight
21 Jul - 23:07:51 10° S 23:11:03 13° SSE 23:14:19 10° SE night (unlit)
22 Jul - 00:59:01 10° SW 01:06:01 41° SSE 01:13:16 10° E night (unlit)
22 Jul - 02:52:50 10° WSW 03:00:28 64° NNW 03:08:15 10° NE visible
22 Jul - 04:49:39 10° WNW 04:55:18 21° NNW 05:00:56 10° NNE visible
22 Jul - 10:43:59 10° NNE 10:44:41 10° NNE 10:45:23 10° NNE daylight
22 Jul - 12:33:47 10° NNW 12:39:48 32° NNE 12:45:34 10° E daylight
22 Jul - 14:27:18 10° WNW 14:33:57 71° SSW 14:40:24 10° SE daylight
22 Jul - 16:23:41 10° WSW 16:28:11 19° SSW 16:32:41 10° SSE daylight
23 Jul - 00:05:42 10° SSW 00:12:00 30° SSE 00:18:34 10° E night (unlit)
23 Jul - 01:58:50 10° WSW 02:06:28 85° NNW 02:14:21 10° ENE visible
23 Jul - 03:54:39 10° W 04:01:07 28° NNW 04:07:37 10° NNE visible
23 Jul - 11:40:24 10° NNW 11:45:52 24° NNE 11:51:06 10° ENE daylight
23 Jul - 13:33:23 10° WNW 13:40:12 82° NNE 13:46:44 10° ESE daylight
23 Jul - 15:28:53 10° W 15:34:18 27° SSW 15:39:40 10° SSE daylight
23 Jul - 23:12:35 10° SSW 23:17:57 22° SSE 23:23:31 10° ESE night (unlit)
24 Jul - 01:05:03 10° SW 01:12:29 72° SSE 01:20:16 10° ENE visible
24 Jul - 03:00:01 10° W 03:06:59 37° NNW 03:14:07 10° NE visible
24 Jul - 04:59:01 10° NW 05:02:17 13° NNW 05:05:35 10° N visible
24 Jul - 10:47:09 10° NNW 10:51:48 18° NNE 10:56:18 10° ENE daylight
24 Jul - 12:39:35 10° NW 12:46:26 59° NNE 12:52:54 10° ESE daylight
24 Jul - 14:34:22 10° W 14:40:29 38° SSW 14:46:27 10° SE daylight
24 Jul - 16:33:51 10° SSW 16:35:10 11° SSW 16:36:28 10° S daylight
24 Jul - 22:19:47 10° S 22:23:52 16° SSE 22:28:03 10° ESE night (unlit)
25 Jul - 00:11:29 10° SW 00:18:32 52° SSE 00:25:57 10° ENE night (unlit)
25 Jul - 02:05:40 10° WSW 02:12:56 50° NNW 02:20:28 10° NE visible
25 Jul - 04:03:13 10° WNW 04:07:57 17° NNW 04:12:45 10° NNE visible
25 Jul - 09:54:07 10° N 09:57:38 14° NNE 10:01:04 10° NE daylight
25 Jul - 11:45:54 10° NW 11:52:35 42° NNE 11:58:53 10° E daylight
25 Jul - 13:40:03 10° WNW 13:46:43 54° SSW 13:53:05 10° SE daylight
25 Jul - 15:37:31 10° WSW 15:41:07 15° SSW 15:44:40 10° S daylight
25 Jul - 21:27:49 10° S 21:29:43 11° SSE 21:31:38 10° SE night (unlit)
25 Jul - 23:18:06 10° SW 23:24:36 37° SSE 23:31:26 10° E night (unlit)
26 Jul - 01:11:36 10° WSW 01:18:55 68° NNW 01:26:38 10° NE visible
26 Jul - 03:08:01 10° WNW 03:13:43 22° NNW 03:19:31 10° NNE visible
26 Jul - 09:01:44 10° N 09:03:20 11° NNE 09:04:55 10° NNE daylight
26 Jul - 10:52:19 10° NNW 10:58:39 31° NNE 11:04:39 10° E daylight
26 Jul - 12:45:55 10° WNW 12:52:57 76° SSW 12:59:34 10° SE daylight
26 Jul - 14:42:17 10° WSW 14:47:10 21° SSW 14:51:56 10° SSE daylight
26 Jul - 22:24:55 10° SSW 22:30:39 27° SSE 22:36:39 10° E night (unlit)
27 Jul - 00:17:45 10° WSW 00:24:59 90° SE 00:32:40 10° ENE night (unlit)
27 Jul - 02:13:12 10° W 02:19:33 29° NNW 02:26:06 10° NNE visible
27 Jul - 04:14:08 10° NNW 04:15:08 10° NNW 04:16:09 10° N visible
27 Jul - 09:58:51 10° NNW 10:04:37 24° NNE 10:10:07 10° ENE daylight
27 Jul - 11:51:55 10° NW 11:59:08 78° NNE 12:05:54 10° ESE daylight
27 Jul - 13:47:26 10° W 13:53:17 29° SSW 13:58:55 10° SSE daylight
27 Jul - 21:31:57 10° SSW 21:36:40 19° SSE 21:41:32 10° ESE night (unlit)
27 Jul - 23:24:06 10° SW 23:31:04 66° SSE 23:38:31 10° ENE night (unlit)
28 Jul - 01:18:45 10° W 01:25:28 39° NNW 01:32:32 10° NE visible
28 Jul - 03:17:15 10° NW 03:20:43 13° NNW 03:24:14 10° N visible
28 Jul - 09:05:31 10° NNW 09:10:28 18° NNE 09:15:15 10° ENE daylight
28 Jul - 10:58:04 10° NW 11:05:16 57° NNE 11:12:02 10° ESE daylight
28 Jul - 12:52:52 10° W 12:59:27 42° SSW 13:05:42 10° SE daylight
28 Jul - 14:51:47 10° SW 14:54:04 12° SSW 14:56:19 10° S daylight
28 Jul - 20:39:25 10° S 20:42:38 14° SSE 20:45:54 10° SE visible
28 Jul - 22:30:38 10° SW 22:37:12 47° SSE 22:44:11 10° ENE night (unlit)
29 Jul - 00:24:33 10° WSW 00:31:28 52° NNW 00:38:49 10° NE night (unlit)
29 Jul - 02:21:43 10° WNW 02:26:25 17° NNW 02:31:14 10° NNE visible
29 Jul - 08:12:25 10° N 08:16:12 14° NNE 08:19:57 10° NE daylight
29 Jul - 10:04:19 10° NW 10:11:20 42° NNE 10:17:57 10° E daylight
29 Jul - 11:58:29 10° WNW 12:05:37 59° SSW 12:12:19 10° SE daylight
29 Jul - 13:55:49 10° WSW 14:00:01 17° SSW 14:04:07 10° SSE daylight
29 Jul - 21:37:21 10° SSW 21:43:21 34° SSE 21:49:39 10° E night (unlit)
29 Jul - 23:30:36 10° WSW 23:37:32 71° NNW 23:44:58 10° NE night (unlit)
